Weather in Bol'shie Alabukhi

Russia / Voronezh Oblast     51°34′27″N   42°14′56″E
temp.,
°C
wind,
m/s
gust,
m/s
humid.,
%
clouds,
%
prec.,
mm/h
press.,
hPa
HPBL,
m
3 march, wed
wed300:000wnw4896100 0.1 1008372
03:00−1nw5109193 0.4 1009298
06:00−2nw6109468 0.0 1009409
09:00−1nw5109184 0.1 1012880
12:00−1nnw7108299 0.4 1013975
15:00−2nw6108498 0.4 1015768
18:00−5wnw511901 0.0 1017284
21:00−6wnw411908 0.0 1018218
4 march, thu
thu400:00−6w511920 0.0 1016224
03:00−2wsw6129343 0.0 1015593
06:00−2w71390100 0.1 1013859
09:000wsw8168799 0.1 1012685
12:00+1wsw8159163 0.0 1010664
15:00+2wsw7158736 0.0 1009772
18:00+1wsw6157640 0.0 1007479
21:000sw6168251 0.0 1006488
5 march, fri
fri500:00+2sw6158569 0.0 1004621
03:00+2sw7159684 0.3 1003564
06:00+2wsw51398100 0.3 1002432
09:00+1w61299100 0.4 1004518
12:00+1w5996100 0.4 1006608
15:00+1nw578999 0.4 1009668
18:00−2nw238897 0.0 101158
21:00−3nnw239199 0.0 101382
6 march, sat
sat600:00−3nne2389100 0.0 101386
03:00−4nne3586100 0.0 1013220
06:00−4nne3585100 0.0 1013287
09:00−4nne4686100 0.0 1014323
12:00−4n4673100 0.0 1015569
15:00−3nnw357171 0.0 1015629
18:00−5nw22840 0.0 101550
21:00−6wnw11830 0.0 101621
7 march, sun
sun700:00−5sse118167 0.0 101663
03:00−7ne349583 0.5 1017182
06:00−8nw469392 0.4 1017333
09:00−7wsw487362 0.4 1017542
12:00−4sw7116567 0.0 10151009
15:00−2sw9156083 0.0 10111245
18:00−2sw81762100 0.0 10081191
21:00−2sw91868100 0.0 10051203